{"data":{"norad_id":68437,"epoch":"2026-05-25T03:02:03.532992Z","epoch_age_seconds":57914,"freshness":"FRESH","line1":"1 68437U 26067X   26145.12642978  .00013433  00000+0  64559-3 0  9991","line2":"2 68437  97.4490 103.9262 0004767 108.4183 251.7570 15.18932262  8447","mean_motion":15.18932262,"eccentricity":0.0004767,"inclination_deg":97.449,"raan_deg":103.9262,"arg_perigee_deg":108.4183,"mean_anomaly_deg":251.757,"bstar":0.00064559,"rev_number":844,"period_min":94.803437653232,"perigee_km":505.78318125122,"apogee_km":512.349440888,"semimajor_km":6887.2033110696,"source":"CELESTRAK","updated_at":"2026-05-25T13:38:07.816561Z"}}